Location: Bar Hill
(52.2539°N, 0.0228°E)
Time: 19:25:21
(UTC+00:00)

Daily predictions for brighter satellites

Satellite Brightness Start Highest point End
(mag) Time Altitude Azimuth Time Altitude Azimuth Time Altitude Azimuth
SPOT 1/Viking Rocket 3.6 18:49:12 10° SSE 18:54:22 75° ENE 18:59:33 10° NNW
Terra 3.9 18:55:16 10° ENE 18:56:30 11° NE 18:57:43 10° NE
Kosmos-1783 4.2 18:55:42 10° S 18:57:07 14° SE 18:58:16 10° E
TRACE 4.4 18:54:53 10° NNE 18:58:18 68° ESE 19:01:39 10° S
Cosmos 1400 Rocket 2.7 18:54:51 10° N 18:58:41 61° ENE 19:02:27 10° SSE
Cosmos 1066 Rocket 4.3 18:53:41 10° N 18:59:35 71° ENE 19:05:24 10° SSE
Cosmos 2322 4.0 18:54:17 10° S 18:59:35 43° ESE 19:04:55 10° NE
USA 59 Rocket -0.1 18:57:42 10° NW 19:01:19 85° NE 19:06:12 10° SE
Cosmos 1943 Rocket 2.8 18:59:17 10° NNW 19:04:30 41° NE 19:09:42 10° ESE
CZ-4B R/B 3.5 19:00:59 10° SSE 19:05:45 84° WSW 19:10:35 10° NNW
Cosmos 1725 Rocket 4.3 18:59:45 10° SSW 19:05:55 75° W 19:12:09 10° N
Cosmos 2333 4.4 19:02:14 10° SSW 19:08:01 81° WNW 19:13:50 10° NNE
CSL-04 Debris 4.5 19:03:03 10° SE 19:08:20 51° ENE 19:13:37 10° N
ACS3 Solar Sail 2.5 19:03:40 10° SE 19:09:31 39° ENE 19:15:22 10° N
Cosmos 1315 Rocket 4.3 19:07:00 10° NNE 19:10:00 20° ENE 19:12:48 11° ESE
USA 267 3.7 19:04:14 10° ENE 19:10:38 60° N 19:17:04 10° WNW
Cosmos 1328 Rocket 3.5 19:07:08 10° N 19:11:25 67° ENE 19:15:41 10° SSE
Helios 1A 3.0 19:08:58 10° NNE 19:12:59 54° ESE 19:16:57 10° S
Meteor 1-4 Rocket 1.9 19:13:11 10° N 19:15:48 51° ENE 19:18:26 10° SSE
NOSS 2-1 (C) 3.6 19:16:31 10° NW 19:20:06 69° SW 19:24:57 10° SE
Cosmos 1536 3.7 19:16:56 10° SSE 19:20:07 26° E 19:23:20 10° NNE
COSMOS 2428 2.9 19:15:56 10° S 19:21:27 52° ESE 19:27:00 10° NE
USA 290 2.3 19:19:00 10° NNW 19:22:16 63° ENE 19:25:26 11° SE
SKYMED 3 4.4 19:18:55 10° NNE 19:23:05 80° ESE 19:27:11 10° SSW
Cosmos 1726 1.7 19:22:42 10° SSW 19:25:29 70° WNW 19:28:18 10° N
CARTOSAT-1 3.5 19:21:59 10° SSE 19:26:13 71° ENE 19:30:28 10° N
CZ-4 R/B 1.4 19:22:34 10° S 19:26:23 79° WSW 19:30:18 10° NNW
Nadezhda 4 Rocket 4.3 19:20:33 10° N 19:26:34 47° ENE 19:32:36 10° SE
BlueWalker 3 3.0 19:23:52 10° W 19:27:20 36° SSW 19:30:35 11° SE
ISS -1.6 19:26:39 10° SSE 19:27:44 12° SE 19:27:44 12° SE
SPOT 5 3.7 19:27:15 14° ESE 19:30:34 30° ENE 19:34:27 10° N
Cosmos 2233 Rocket 4.3 19:25:05 10° SSW 19:31:13 72° WNW 19:37:25 10° N
Cosmos 1674 2.7 19:27:53 10° NNW 19:31:13 66° W 19:34:30 10° S
USA 186 1.7 19:29:38 10° SSE 19:32:50 88° E 19:36:06 10° NNW
Cosmos 2278 Rocket 2.2 19:29:16 10° NNW 19:34:59 83° ENE 19:40:33 11° SSE
Cosmos 1733 3.7 19:34:15 11° SSE 19:37:10 30° E 19:40:14 10° NNE
Cosmos 1513 Rocket 4.4 19:32:09 10° S 19:38:05 61° E 19:44:06 10° NNE
USA 306 2.8 19:36:11 10° SW 19:39:13 40° SSE 19:41:34 17° E
SeaSat 1 4.2 19:36:10 10° NNE 19:40:35 34° NW 19:44:59 10° WSW
NOSS 0 Rocket 4.2 19:35:32 10° S 19:41:27 47° ESE 19:47:23 10° NE
CZ-4B R/B 3.2 19:36:24 10° SSE 19:41:53 90° SE 19:47:18 10° NNW
Cosmos 1842 3.1 19:38:59 10° NNW 19:42:36 79° W 19:46:13 10° S
Iridium 4 Rocket 4.0 19:39:45 10° NNW 19:43:50 49° W 19:47:49 10° SSW
Cosmos 1464 Rocket 4.2 19:38:11 10° SSE 19:44:16 54° E 19:50:28 10° NNE
SL-08 R/B 3.9 19:40:31 10° N 19:45:24 64° WNW 19:50:16 10° SSW
Aureole 3 Rocket 4.5 19:41:26 10° SSE 19:47:30 34° E 19:52:04 10° NNE
Lacrosse 4 Rocket 3.5 19:45:13 10° NW 19:48:51 26° WSW 19:52:28 10° S
CZ-4B R/B 3.8 19:45:44 10° S 19:49:26 47° W 19:53:21 10° NNW
Cosmos 1340 4.5 19:46:31 10° SW 19:49:27 30° WNW 19:52:24 10° N
Cosmos 1356 Rocket 3.4 19:45:16 10° NNW 19:49:29 86° WSW 19:53:40 10° S
Sich 1 4.0 19:49:04 21° ESE 19:50:36 27° E 19:54:14 10° NNE
USA 276 2.7 19:49:37 10° W 19:52:15 36° SSW 19:53:02 28° SSE
MOS 1 Rocket 4.1 19:49:57 20° ESE 19:52:59 39° ENE 19:57:51 10° N
Meteor 1-14 Rocket 4.1 19:47:52 10° S 19:53:24 83° E 19:58:59 10° NNE
Cosmos 1707 2.7 19:49:52 10° NNW 19:53:26 72° W 19:56:57 10° S
Okean 3 Rocket 3.5 19:49:41 10° S 19:54:07 65° E 19:58:32 10° NNE
Cosmos 2360 Rocket 3.9 19:49:36 10° WSW 19:54:44 35° NW 19:59:53 10° NNE
Meteor 1-11 Rocket 3.8 19:52:49 10° S 19:58:13 51° E 20:03:35 10° NNE
ERS-1 Rocket 3.7 19:56:18 22° ESE 19:58:49 36° ENE 20:03:23 10° N
Okean O Rocket 1.6 19:54:50 13° SSE 19:58:50 84° ENE 20:03:17 10° NNW
MetOp-B 4.4 19:56:35 20° SE 20:00:10 52° ENE 20:05:23 10° N
Cosmos 1515 Rocket 3.5 19:57:05 10° NNW 20:01:25 84° W 20:05:32 11° S
Ariane Rocket 4.2 20:00:30 20° E 20:02:29 26° ENE 20:06:39 10° N
PSLV R/B 3.5 20:01:55 26° SSE 20:03:47 68° ENE 20:07:18 10° N
Cosmos 1125 Rocket 3.4 19:59:42 10° NNW 20:04:56 89° ENE 20:08:40 19° SSE
Cosmos 2034 Rocket 4.1 19:59:11 10° SSE 20:05:09 52° E 20:11:07 10° NNE
Cosmos 2237 Rocket 2.4 20:00:08 10° S 20:05:29 47° ESE 20:10:52 10° NE
Cosmos 1818 4.0 20:00:24 10° SW 20:05:51 68° NW 20:11:21 10° NE
Cosmos 2322 Rocket 4.4 20:01:13 10° W 20:06:02 27° NW 20:10:53 10° NNE
Cosmos 1072 Rocket 4.5 20:02:42 10° S 20:09:07 83° E 20:15:33 10° NNE
Resurs 01 Rocket 2.6 20:05:18 10° S 20:09:34 47° W 20:13:52 10° NNW
Meteor 2-10 4.1 20:05:44 10° S 20:11:16 68° E 20:16:57 10° NNE
Cosmos 2228 Rocket 4.2 20:07:53 10° N 20:11:51 28° ENE 20:12:48 26° E
CSL-04 Rocket 4.1 20:07:44 10° S 20:13:01 60° WSW 20:18:18 10° NNW
Cosmos 2219 Rocket 3.5 20:08:01 10° WSW 20:13:23 42° NW 20:18:47 10° NNE
Okean-O 2.5 20:17:12 26° SSE 20:19:37 81° ENE 20:24:04 10° NNW
ATLAS 2AS CENTAUR R/B 4.2 20:14:10 10° WNW 20:20:38 35° NNW 20:26:52 10° NE
Cosmos 1500 Rocket 3.6 20:18:47 26° SSE 20:21:00 55° E 20:25:16 10° NNE
Meteor 1-21 4.5 20:17:03 10° N 20:22:41 53° ENE 20:25:14 31° SE
Cosmos 2333 Rocket 4.4 20:18:24 10° W 20:23:17 28° NW 20:28:12 10° NNE
SPOT 3 Rocket 4.3 20:23:20 29° E 20:24:54 36° ENE 20:29:35 10° N
Cosmos 1743 Rocket 3.7 20:25:53 41° SE 20:26:48 48° E 20:30:59 10° NNE
IRS-1A Rocket 4.3 20:26:12 28° SE 20:29:18 70° ENE 20:34:58 10° NNW
Okean 3 4.5 20:25:44 10° N 20:29:23 29° ENE 20:29:24 29° ENE
Terra 2.0 20:31:45 40° ESE 20:33:05 55° ENE 20:37:42 10° N
Cosmos 2369 Rocket 2.9 20:28:11 10° NNW 20:33:37 41° NE 20:35:42 30° E
Cosmos 1980 3.6 20:28:57 10° SSW 20:34:38 79° ESE 20:40:21 10° NNE
Cosmos 2208 Rocket 4.0 20:30:14 10° S 20:35:23 58° ESE 20:40:38 10° NNE
Cosmos 1408 Rocket 3.5 20:32:57 13° SSW 20:36:48 82° WNW 20:41:15 10° N
BREEZE-M DEB (TANK) 4.1 20:33:45 10° W 20:37:01 63° S 20:39:47 33° ESE
NOSS 3-3 (C) 4.0 20:39:29 10° SSW 20:44:39 46° ESE 20:50:42 10° NE
Cosmos 1315 Rocket 3.6 20:42:29 10° NNW 20:46:20 48° W 20:48:00 29° SSW
Cosmos 1975 3.2 20:48:45 46° NE 20:48:45 46° NE 20:51:51 10° NNE
Cosmos 1943 Rocket 3.0 20:43:06 10° NW 20:48:20 45° WSW 20:51:28 22° S
USA 59 Rocket 2.4 20:47:54 10° W 20:50:38 17° WSW 20:53:44 10° SSW
USA 267 3.3 20:50:07 32° E 20:53:23 76° NNE 20:59:56 10° WNW
ACS3 Solar Sail 2.6 20:47:15 10° S 20:53:26 50° W 20:59:41 10° NNW
Okean 2 4.4 20:54:53 10° N 20:57:50 32° NE 20:57:50 32° NE
NOSS 3-3 (A) 3.7 20:54:33 10° SSW 20:59:55 60° SE 21:06:14 10° NE
CRYOSAT 2 4.4 20:56:03 10° N 21:00:58 78° W 21:03:01 35° SSW
Cosmos 1805 Rocket 3.7 20:59:56 36° SSW 21:01:35 71° WNW 21:05:56 10° N
SL-16 R/B 2.7 21:05:29 39° E 21:05:29 39° E 21:09:47 10° NE
BREEZE-M DEB (TANK) 4.5 21:02:35 10° WSW 21:03:10 17° WSW 21:03:10 17° WSW
SL-14 R/B 3.8 21:01:54 10° NNW 21:05:35 50° W 21:06:01 47° WSW
COSMOS 2428 4.1 21:00:35 10° WSW 21:05:55 38° NW 21:11:16 10° NNE
Spot 2 Rocket 3.4 21:07:26 59° SSE 21:08:25 89° ENE 21:13:29 10° NNW
SPOT 5 3.7 21:06:25 26° SSW 21:08:29 41° W 21:12:45 10° NNW
USA 306 3.4 21:08:13 10° W 21:10:38 43° W 21:10:38 43° W
Cosmos 1862 Rocket 3.5 21:07:26 10° N 21:11:43 75° ENE 21:11:43 75° ENE
Cosmos 1633 Rocket 4.1 21:14:04 34° NE 21:14:04 34° NE 21:16:52 10° NNE
Cosmos 1805 4.0 21:13:08 43° W 21:13:36 46° WNW 21:17:10 10° N
Cosmos 1707 Rocket 3.5 21:12:08 10° NNW 21:16:36 87° W 21:16:36 87° W
Cosmos 2263 4.4 21:11:30 10° NNW 21:17:11 58° NE 21:18:03 53° E
Cosmos 1092 Rocket 4.4 21:11:29 10° NNW 21:17:42 61° W 21:20:56 29° SSW
Cosmos 2278 Rocket 4.3 21:14:20 10° NW 21:18:23 20° W 21:22:24 10° SSW
Cosmos 2026 Rocket 4.5 21:13:55 10° NNW 21:20:02 57° W 21:23:11 28° SSW
Cosmos 2266 Rocket 4.2 21:15:15 10° N 21:21:21 53° ENE 21:22:08 50° E
Cosmos 158 Rocket 4.4 21:16:57 10° SW 21:21:45 56° WNW 21:26:34 10° NNE
NOSS 3-4 (A) 3.7 21:15:31 10° NW 21:22:12 88° NE 21:24:21 51° SE
NOSS 3-4 (C) 3.7 21:15:38 10° NW 21:22:18 87° NE 21:24:28 51° SE
Cosmos 1656 Rocket 3.6 21:17:13 10° NNW 21:22:55 82° WSW 21:23:46 65° S
Cosmos 1666 Rocket 4.1 21:24:30 49° NNE 21:24:30 49° NNE 21:27:47 10° NNE
Sich 1 4.3 21:25:41 22° SW 21:27:51 38° WNW 21:31:53 10° N
Aureole 3 4.4 21:25:47 10° N 21:28:10 38° NNE 21:28:10 38° NNE
Cosmos 2344 4.5 21:24:51 10° NW 21:32:05 46° NNE 21:38:15 20° E
Cosmos 1634 Rocket 4.1 21:31:42 33° SSW 21:34:43 73° WNW 21:41:05 10° N
Okean O Rocket 4.3 21:33:22 10° WSW 21:35:41 14° W 21:38:02 10° NW
ERS-1 Rocket 4.0 21:36:13 34° SW 21:37:31 40° W 21:42:16 10° NNW
CZ-4C R/B 4.3 21:37:08 10° N 21:39:58 44° NNW 21:39:58 44° NNW
Ariane Rocket 3.2 21:40:38 57° SW 21:41:05 59° W 21:46:07 10° NNW
Cosmos 2237 Rocket 3.4 21:44:23 10° WSW 21:49:40 40° NW 21:54:59 10° NNE
Cosmos 2228 Rocket 4.1 21:45:50 10° NNW 21:50:07 41° W 21:50:13 41° W
Cosmos 2297 4.0 21:49:55 10° NW 21:55:25 55° WSW 21:55:35 55° WSW
Cosmos 2142 Rocket 4.4 21:55:44 70° SSW 21:56:28 84° W 22:02:39 10° N
Cosmos 1655 Rocket 4.0 21:51:13 10° N 21:57:33 64° ENE 21:57:43 64° E
ARIANE 5 R/B 4.0 22:02:05 31° NNE 22:02:05 31° NNE 22:04:43 10° N
MetOp-A 4.3 22:03:20 55° NNW 22:03:20 55° NNW 22:07:08 10° NNW
SPOT 3 Rocket 4.4 22:03:57 41° WSW 22:04:14 41° W 22:09:07 10° NNW
SL-08 ROCKET BODY 4.3 22:01:12 10° NNW 22:07:25 80° W 22:07:39 79° SW
BREEZE-M DEB (TANK) 3.8 21:56:30 10° W 22:07:15 53° SW 22:07:15 53° SW
Okean 1-7 4.3 22:06:23 10° NNW 22:09:24 39° NW 22:09:24 39° NW
Terra 3.6 22:10:26 23° WSW 22:10:59 23° W 22:14:45 10° NW
ATLAS 2AS CENTAUR R/B 3.9 22:06:56 10° NW 22:13:18 36° NNE 22:17:27 19° ENE
Cosmos 2369 Rocket 2.8 22:12:17 10° NW 22:17:27 47° W 22:17:27 47° W
Cosmos 1607 4.2 22:34:25 50° WSW 22:36:02 69° NW 22:42:29 10° NE
USA 267 3.6 22:37:27 51° WSW 22:37:27 51° WSW 22:43:01 10° WNW
ASTEX 1 4.4 22:42:46 43° N 22:42:46 43° N 22:46:02 10° N
SL-16 R/B 3.2 22:47:17 37° W 22:48:35 43° NW 22:54:01 10° NNE
ALOS 2 4.5 23:05:47 28° N 23:05:47 28° N 23:07:56 10° N
Cosmos 1943 4.0 23:12:26 48° NNE 23:12:26 48° NNE 23:16:34 10° NNE
Cosmos 1656 4.4 23:16:37 10° NNW 23:20:54 50° N 23:20:54 50° N
Cosmos 1697 Rocket 3.8 23:20:24 10° NNW 23:25:18 39° NE 23:25:18 39° NE
USA 215 3.3 23:36:32 10° ENE 23:43:05 73° NNW 23:43:14 73° NNW
Cosmos 1553 Rocket 4.3 23:44:28 62° NNW 23:44:28 62° NNW 23:49:43 10° N
Cosmos 2344 3.8 23:39:15 10° NW 23:47:19 82° SW 23:48:12 75° S
ATLAS CENTAUR R/B 4.2 23:48:13 15° N 23:48:13 15° N 23:50:04 10° NNE
Cosmos 1709 Rocket 4.4 23:42:26 10° N 23:47:51 62° NNE 23:47:51 62° NNE
